Regional Weather Roundup
Issued by NWS Northern Indiana

Home | Current Version | Previous Version | Text Only | Print | Product List | Glossary Off
Versions: 1 2 3 4 5 6 7 8 9 10 11 12 13 14 15 16 17 18 19 20 21 22 23 24 25 26 27 28 29 30 31 32 33 34 35 36 37 38 39 40 41 42 43 44 45 46 47 48 49 50

000
ASUS43 KIWX 010800
RWRIWX

KIWX WEATHER ROUNDUP
NATIONAL WEATHER SERVICE NORTHERN INDIANA
400 AM EDT MON SEP 01 2014

NOTE: "FAIR" INDICATES FEW OR NO CLOUDS BELOW 12,000 FEET WITH NO
SIGNIFICANT WEATHER AND/OR OBSTRUCTIONS TO VISIBILITY.

* THESE STATIONS ARE NOT UNDER NWS QUALITY CONTROL. THEY ALSO MAY NOT
  REPORT WEATHER SUCH AS PRECIPITATION OR FOG.

INZ001>027-010900-
NORTHERN INDIANA

CITY           SKY/WX    TMP DP  RH WIND       PRES   REMARKS
VALPARAISO     CLEAR     71  69  93 S7        29.88F
KNOX*          CLEAR     71  68  90 S6        29.89S
SOUTH BEND     CLEAR     73  69  87 S9        29.90S
GOSHEN         CLEAR     73  69  87 S8        29.91F
MONTICELLO*    CLEAR     72  71  96 S7        29.91S
ANGOLA*        PTCLDY    68  61  77 S3        29.94S
FORT WAYNE     PTCLDY    70  68  93 S9        29.95F
PERU/GRISSOM   PTCLDY    71  71 100 S7        29.93F

$$
INZ028>050-010900-
CENTRAL INDIANA

CITY           SKY/WX    TMP DP  RH WIND       PRES   REMARKS
LAFAYETTE      PTCLDY    71  70  96 S8        29.91F
KOKOMO*        CLEAR     70  66  88 S6        29.93F
MUNCIE*        CLOUDY    71  69  93 S6        29.97F
INDIANAPOLIS   MOCLDY    71  70  96 S9        29.94F

$$
MIZ043>046-050>051-056>058-064>065-071>073-077>080-010900-
SOUTHWEST LOWER MICHIGAN

CITY           SKY/WX    TMP DP  RH WIND       PRES   REMARKS
BATTLE CREEK   CLEAR     70  67  90 S7        29.91F FOG
BENTON HARBOR  CLEAR     71  69  93 S7        29.88S
COLDWATER*     CLEAR     71  70  95 SW7       29.92F FOG
HILLSDALE*     CLEAR     70  70 100 S3        29.94F FOG
HOLLAND        PTCLDY    70  68  93 S6        29.87F
GRAND RAPIDS   PTCLDY    68  68 100 S8        29.88F
KALAMAZOO      MOCLDY    71  68  90 S8        29.90F FOG
STURGIS*         N/A     70  70 100 S6        29.92S FOG
THREE RIVERS*  FAIR      71  70  97 S7        29.91F FOG

$$
OHZ001>008-015>018-024>025-010900-
NORTHWEST OHIO

CITY           SKY/WX    TMP DP  RH WIND       PRES   REMARKS
DEFIANCE       CLEAR     71  67  87 SW3       29.94F
FINDLAY        CLEAR     70  68  93 S6        29.96F
TOLEDO EXPRESS CLEAR     71  69  93 S5        29.94S
TOLEDO METCALF MOCLDY    73  68  84 S8        29.95F
LIMA           CLEAR     71  68  90 S6        29.97F

$$
&&


USA.gov is the U.S. government's official web portal to all federal, state and local government web resources and services.